Miami Beach, Florida, United States (33109)
Lat: 25.79N, Lon: 80.13W
Wx Zone: FLZ173
Local Info
Past Weather Observations for Wednesday, October 29, 2014

NOTE: This archive is for the closest National Weather Service station to Miami Beach. Information may differ from the station used for current weather conditions.

Click here for Long-term Archive

Time Weather Temperature Dewpoint Humidity Pressure Winds Precip Visibility
23:53
Overcast
75°F / 24°C 68°F / 20°C 78% 30.01 in
(1016 mb)
WNW 3.5 mph
(WNW 6 kph)
- 10SM
22:53
Partly Cloudy
75°F / 24°C 66°F / 19°C 74% 30.01 in
(1016 mb)
WNW 3.5 mph
(WNW 6 kph)
- 10SM
21:53
Partly Cloudy
77°F / 25°C 66°F / 19°C 69% 30.01 in
(1016 mb)
E 3.5 mph
(E 6 kph)
- 10SM
20:53
Partly Cloudy
77°F / 25°C 64°F / 18°C 65% 30.01 in
(1016 mb)
E 5.8 mph
(E 9 kph)
- 10SM
19:53
Clear
77°F / 25°C 64°F / 18°C 65% 30.01 in
(1016 mb)
E 5.8 mph
(E 9 kph)
- 10SM
18:53
Clear
79°F / 26°C 64°F / 18°C 61% 30.01 in
(1016 mb)
E 9.2 mph
(E 15 kph)
- 10SM
17:53
Partly Cloudy
79°F / 26°C 64°F / 18°C 61% 30.01 in
(1016 mb)
SE 6.9 mph
(SE 11 kph)
- 10SM
16:53
Partly Cloudy
81°F / 27°C 63°F / 17°C 54% 30.01 in
(1016 mb)
SE 8.1 mph
(SE 13 kph)
- 10SM
15:53
Partly Cloudy
82°F / 28°C 61°F / 16°C 48% 30.01 in
(1016 mb)
SE 9.2 mph
(SE 15 kph)
- 10SM
14:53
Partly Cloudy
84°F / 29°C 63°F / 17°C 48% 30.01 in
(1016 mb)
SE 8.1 mph
(SE 13 kph)
- 10SM
13:53
Mostly Cloudy
84°F / 29°C 64°F / 18°C 51% 30.01 in
(1016 mb)
Variable 3.5 mph
(Variable 6 kph)
- 10SM
12:53
Partly Cloudy
82°F / 28°C 64°F / 18°C 55% 30.04 in
(1017 mb)
ESE 9.2 mph
(ESE 15 kph)
- 10SM
11:53
Mostly Cloudy
84°F / 29°C 64°F / 18°C 51% 30.06 in
(1018 mb)
Variable 4.6 mph
(Variable 7 kph)
- 10SM
10:53
Mostly Cloudy
82°F / 28°C 64°F / 18°C 55% 30.09 in
(1019 mb)
SE 5.8 mph
(SE 9 kph)
- 10SM
09:53
Partly Cloudy
82°F / 28°C 64°F / 18°C 55% 30.09 in
(1019 mb)
SE 8.1 mph
(SE 13 kph)
- 10SM
08:53
Partly Cloudy
81°F / 27°C 64°F / 18°C 58% 30.09 in
(1019 mb)
E 8.1 mph
(E 13 kph)
- 10SM
07:53
Partly Cloudy
79°F / 26°C 66°F / 19°C 65% 30.09 in
(1019 mb)
E 8.1 mph
(E 13 kph)
- 10SM
06:53
Partly Cloudy
75°F / 24°C 66°F / 19°C 74% 30.09 in
(1019 mb)
E 4.6 mph
(E 7 kph)
- 10SM
05:53
Partly Cloudy
75°F / 24°C 66°F / 19°C 74% 30.06 in
(1018 mb)
SE 3.5 mph
(SE 6 kph)
- 10SM
04:53
Partly Cloudy
75°F / 24°C 68°F / 20°C 78% 30.06 in
(1018 mb)
ESE 5.8 mph
(ESE 9 kph)
- 10SM
03:53
Partly Cloudy
75°F / 24°C 66°F / 19°C 74% 30.06 in
(1018 mb)
E 5.8 mph
(E 9 kph)
- 10SM
02:53
Clear
73°F / 23°C 66°F / 19°C 78% 30.06 in
(1018 mb)
Calm - 10SM
01:53
Clear
75°F / 24°C 68°F / 20°C 78% 30.06 in
(1018 mb)
E 4.6 mph
(E 7 kph)
- 10SM
00:53
Partly Cloudy
75°F / 24°C 68°F / 20°C 78% 30.09 in
(1019 mb)
E 5.8 mph
(E 9 kph)
- 10SM
Time Weather Temperature Dewpoint Humidity Pressure Winds Precip Visibility


Weather for websites

WeatherForYou.com, LLC is not responsible for any damages or problems caused by this service. Current weather conditions are obtained from the closest station including government and personal stations which may have varying degrees of accuracy. Weather forecasts are derived from the NOAA NDFD. Like all things, this site belongs to Jesus Christ... He just trusts me to maintain it. If you have any questions or comments email webmaster@weatherforyou.com

Copyright © 2014, WeatherForYou.com LLC. All rights reserved.